铱星星座 180星 (IRIDIUM 180)

导读

IRIDIUM 180是美国发射的第二代铱星(Iridium-NEXT)通信卫星,于2019年1月11日发射入轨,属于全球铱星卫星通信星座的组成部分。该卫星运行在约780公里高度的近地轨道,轨道倾角约86.4°,主要提供全球覆盖的语音和数据通信服务,设计使用寿命约12.5年,补充完善了铱星系统的全球无缝通信能力。

基本信息
目录编号:
43922
目录名称:
IRIDIUM 180
国际标识:
2019-002A
轨道中心:
EARTH
卫星名称:
铱星星座 180星
卫星全名:
铱星星座 180星 (IRIDIUM 180)
卫星状态:
在轨 (已飞行2800 天)
发射日期:
2019-01-11 UTC
国别 :
美国 (US)
星等 :
--
轨道信息
数据来源 国际轨道数据
星历时间: 2026-09-11T01:48:23+0800
10小时前
查看轨道信息
半长轴: 7155.802km
偏心率: 0.0002231
轨道倾角: 86.399°
近地点辐角 95.474°
升交点赤经 317.855°
平近点角 264.671°
近地点: 776.068km
远地点: 779.262km
周期: 100.403分钟
每日圈数: 14.342185
详细信息
平衡模式:
三轴稳定
覆盖范围:
全球
运营商:
铱星通信公司
运营商所在国:
美国
制造商(研发单位):
阿莱尼亚宇航公司
制造商所在国:
意大利
使用方式:
暂无
卫星简介
铱星(Iridium)是由共66个运作中的通信卫星组成的卫星通信系统。这个系统原本规划77个通信卫星,所以用原子序数为77的铱元素来命名。铱卫星允许人们使用手持型电子设备进行全球性的语音及数据通讯。该卫星仍在工作。
2D轨道图
3D轨道图
轨道高度分析图
轨道倾角分析图
轨道综合分析图
查看轨道综合分析图
交会数据列表
事件ID 空间交会对象 最接近时刻(TCA) 交会距离 交会风险概率(CRP) 交会风险指数(CRI) 操作
CDM_260910-231103-464804-392225
2026-09-10T
23:11:37+0000
2.230 km
极远距离
2.15903E-6 低风险 0.42
CDM_260911-112701-818704-392226
2026-09-11T
11:27:44+0000
2.532 km
极远距离
1.690296E-6 低风险 0.4
CDM_260912-194101-503204-392223
SL-8 R/B (15032)
2026-09-12T
19:41:40+0000
2.732 km
极远距离
1.070558E-6 低风险 0.36
CDM_260912-214704-392205-461922
2026-09-12T
21:47:09+0000
2.252 km
极远距离
6.417399E-7 极低风险 0.31
CDM_260912-033504-142904-392223
2026-09-12T
03:35:16+0000
2.957 km
极远距离
6.205785E-7 极低风险 0.31
与全量物体交会距离演化趋势
与全量物体交会风险概率演化趋势